Location: Unspecified
(40.7945°N, 111.1337°W)
Time: 02:06:18
(UTC-06:00)

Okean 3 - Visible Passes

Search period start: 22 August 2018 00:00
Search period end: 01 September 2018 00:00
Orbit: 578 x 601 km, 82.5° (Epoch: 21 August)

Date Brightness Start Highest point End Pass type
(mag) Time Alt. Az. Time Alt. Az. Time Alt. Az.
22 Aug 5.8 21:29:18 10° NNW 21:32:48 25° W 21:36:15 10° SW visible
23 Aug 6.3 21:37:57 10° NW 21:40:43 17° W 21:43:26 10° SW visible
24 Aug 6.7 21:47:15 10° WNW 21:48:34 11° W 21:49:53 10° WSW visible
27 Aug 5.0 20:32:00 10° NNW 20:35:59 40° W 20:39:54 10° SSW visible
28 Aug 5.9 20:40:22 10° NNW 20:43:55 27° W 20:47:27 10° SSW visible
29 Aug 6.4 20:48:58 10° NW 20:51:50 18° W 20:54:42 10° SW visible
30 Aug 6.8 20:58:05 10° WNW 20:59:43 12° W 21:01:20 10° WSW visible
